Location: Bremen
(53.0793°N, 8.8017°E)
Time: 12:53:54
(UTC+01:00)

ARIANE 6 FM1 Upper Stage - Pass Details

Date: 15 December 2025
Orbit: 522 x 610 km, 62.0° (Epoch: 13 January)

Event Time Altitude Azimuth Distance (km) Brightness Sun altitude
Rises 05:57:07 0° 177° (S) 2,686 6.3 -21.8°
Reaches altitude 10° 06:00:08 10° 153° (SSE) 1,784 5.7 -21.3°
Maximum altitude 06:02:21 15° 119° (ESE) 1,510 5.8 -21.0°
Drops below altitude 10° 06:04:33 10° 85° (E) 1,775 6.3 -20.7°
Sets 06:07:32 0° 61° (ENE) 2,662 6.9 -20.2°
